Location: Brodeslavy
(49.9527°N, 13.5567°E)
Time: 04:23:47
(UTC+00:00)

Okean 2 Rocket - Pass Details

Date: 17 June 2025
Orbit: 611 x 635 km, 82.5° (Epoch: 12 July)

Event Time Altitude Azimuth Distance (km) Brightness Sun altitude
Rises 23:36:14 0° 353° (N) 2,940 8.1 -16.4°
Reaches altitude 10° 23:38:32 10° 358° (N) 2,024 7.0 -16.3°
Maximum altitude 23:42:56 55° 76° (ENE) 762 3.6 -16.2°
Enters shadow 23:45:45 21° 148° (SSE) 1,420 4.5 -16.1°
